EST,Max TemperatureF,Mean TemperatureF,Min TemperatureF,Max Dew PointF,MeanDew PointF,Min DewpointF,Max Humidity, Mean Humidity, Min Humidity, Max Sea Level PressureIn, Mean Sea Level PressureIn, Min Sea Level PressureIn, Max VisibilityMiles, Mean VisibilityMiles, Min VisibilityMiles, Max Wind SpeedMPH, Mean Wind SpeedMPH, Max Gust SpeedMPH,PrecipitationIn, CloudCover, Events, WindDirDegrees
2014-1-1,48,40,32,40,33,29,92,77,52,30.40,30.32,30.17,10,8,2,4,0,,0.00,2,,67
2014-1-2,50,42,33,48,43,21,94,88,61,30.15,29.86,29.71,10,6,2,16,3,26,0.24,7,Rain,243
2014-1-3,37,30,21,16,10,3,78,46,23,30.46,30.31,29.97,10,10,10,13,7,24,0.00,0,,345
2014-1-4,36,28,19,25,17,14,85,61,42,30.50,30.41,30.26,10,10,10,7,3,,0.00,6,,38
2014-1-5,44,38,33,43,37,26,100,92,70,30.24,30.04,29.79,10,3,0,12,4,,0.17,8,Fog-Rain,59
2014-1-6,54,35,14,52,29,-4,100,70,32,30.34,29.92,29.73,10,8,1,18,13,38,0.06,4,Rain,249
2014-1-7,28,18,9,9,0,-5,68,47,27,30.54,30.47,30.35,10,10,10,12,6,22,0.00,0,,250
2014-1-8,46,30,14,13,8,1,84,49,16,30.59,30.54,30.50,10,10,10,7,1,,0.00,0,,123
2014-1-9,48,36,24,32,20,12,75,51,27,30.56,30.49,30.43,10,10,10,7,2,,0.00,6,Rain,38
2014-1-10,46,42,39,45,41,35,96,92,76,30.40,30.24,30.08,10,3,1,9,6,,0.56,8,Rain,31
2014-1-11,66,56,46,62,51,40,100,90,71,30.06,29.83,29.69,10,5,0,25,6,40,1.68,6,Fog-Rain-Thunderstorm,223
2014-1-12,59,49,39,38,34,31,79,62,35,30.21,30.10,29.87,10,10,10,9,6,,0.00,0,,260
2014-1-13,60,47,34,45,36,31,93,69,39,30.19,30.09,29.93,10,10,4,12,3,,0.12,2,Rain,204
2014-1-14,62,54,45,48,43,31,100,82,32,30.00,29.89,29.83,10,6,0,10,2,17,0.07,6,Fog-Rain,254
2014-1-15,57,47,36,35,30,20,79,58,42,29.99,29.95,29.88,10,10,10,13,7,20,0.00,1,,251
2014-1-16,46,36,25,23,18,14,85,54,28,30.10,30.04,29.99,10,10,10,10,3,17,0.00,0,Rain,233
2014-1-17,55,42,30,29,20,11,61,44,21,30.05,29.99,29.89,10,10,10,17,9,25,0.00,1,,223
2014-1-18,43,36,27,17,12,9,63,41,27,30.17,30.08,30.00,10,10,10,15,9,24,0.00,0,,248
2014-1-19,55,44,33,26,22,15,55,41,29,30.05,30.01,29.98,10,10,10,14,8,26,0.00,2,,235
2014-1-20,66,52,37,26,24,20,60,38,18,30.00,29.94,29.86,10,10,10,16,13,23,0.00,0,,234
2014-1-21,59,46,30,31,25,20,64,46,27,29.89,29.75,29.61,10,10,10,17,10,33,0.00,0,,256
2014-1-22,39,30,21,19,7,-3,72,42,18,30.14,30.04,29.92,10,10,10,12,5,,0.00,0,,262
2014-1-23,43,31,19,9,5,1,65,34,21,30.44,30.29,30.14,10,10,10,13,6,20,0.00,0,Rain,265
2014-1-24,30,22,15,7,-5,-12,46,31,15,30.66,30.50,30.32,10,10,10,10,5,,0.00,0,,10
2014-1-25,46,32,19,16,9,0,47,37,23,30.29,29.99,29.80,10,10,10,24,12,32,0.00,3,,233
2014-1-26,57,42,28,29,23,17,66,45,32,30.01,29.95,29.91,10,10,10,21,9,28,0.00,0,,231
2014-1-27,64,53,42,34,31,26,62,44,33,30.02,29.92,29.85,10,10,9,14,9,23,0.00,2,,245
2014-1-28,42,33,24,27,18,2,86,65,26,30.26,30.18,30.04,10,6,1,12,8,20,0.02,7,Snow,34
2014-1-29,32,26,17,20,15,10,81,63,40,30.38,30.29,30.16,10,10,10,8,4,,0.00,4,,16
2014-1-30,41,26,10,15,10,7,84,58,25,30.41,30.33,30.24,10,10,10,7,1,,0.00,0,,50
2014-1-31,57,36,15,20,13,8,84,48,14,30.27,30.21,30.16,10,10,10,8,2,,0.00,0,,227